Tracking 19817 objects as of 19-Aug-2019
HD Live streaming from Space Station
objects crossing your sky now

TIROS 6

Track TIROS 6 now!
10-day predictions
TIROS 6 is classified as:


NORAD ID: 397
Int'l Code: 1962-047A
Perigee: 605.7 km
Apogee: 614.5 km
Inclination: 58.3 °
Period: 96.7 minutes
Semi major axis: 6981 km
RCS: 0.807 m2 (medium)
Launch date: September 18, 1962
Source: United States (US)
Launch site: AIR FORCE EASTERN TEST RANGE (AFETR)
aabbcc
Your satellite tracking list
Your tracking list is empty




NASA's NSSDC Master Catalog

Two Line Element Set (TLE):
1   397U 62047A   19228.90619425 -.00000128 +00000-0 +92741-5 0  9996
2   397 058.3058 103.7181 0006283 006.2910 353.8213 14.88390996040149
Source of the keplerian elements: AFSPC